This demonstration page uses our WeatherBlox Daily Observations layout. Learn more.

Left ArrowRight Arrow

36.19886, -115.1175

Hourly Observations for December 28, 2021

Temp ( °F °C ) Dew Point ( °F °C ) Humidity (%) Winds ( mph kmh ) Pressure ( in mb ) Visibility ( mi km ) Precip ( " mm )
12:53 am 00:53 Clear 44 6.7 28 -2.2 53 53 WNW 5 7 29.71 1006 10 16 0.00 0.00
1:53 am 01:53 Clear 41 5 28 -2.2 60 60 NW 5 7 29.71 1006 10 16 0.00 0.00
2:53 am 02:53 Clear 40 4.4 29 -1.7 65 65 WNW 3 6 29.72 1006 10 16 0.00 0.00
3:53 am 03:53 Clear 39 3.9 28 -2.2 65 65 WNW 6 9 29.72 1006 10 16 0.00 0.00
4:53 am 04:53 Clear 39 3.9 28 -2.2 65 65 W 6 9 29.73 1007 10 16 0.00 0.00
5:53 am 05:53 Clear 38 3.3 28 -2.2 68 68 WNW 6 9 29.75 1008 10 16 0.00 0.00
6:53 am 06:53 Sunny 38 3.3 29 -1.7 70 70 WNW 6 9 29.76 1008 10 16 0.00 0.00
7:53 am 07:53 Sunny 39 3.9 29 -1.7 67 67 NW 5 7 29.77 1008 10 16 0.00 0.00
8:53 am 08:53 Sunny 42 5.6 29 -1.7 60 60 Calm 29.78 1009 10 16 0.00 0.00
9:53 am 09:53 Sunny 45 7.2 29 -1.7 54 54 N 5 7 29.78 1009 10 16 0.00 0.00
10:53 am 10:53 Cloudy 46 7.8 29 -1.7 51 51 NW 3 6 29.78 1008 10 16 0.00 0.00
11:53 am 11:53 Mostly Cloudy 49 9.4 28 -2.2 44 44 NNE 3 6 29.75 1007 10 16 0.00 0.00
12:53 pm 12:53 Cloudy 49 9.4 27 -2.8 43 43 Calm 29.73 1007 10 16 0.00 0.00
1:53 pm 13:53 Mostly Sunny 49 9.4 27 -2.8 43 43 Calm 29.72 1007 10 16 0.00 0.00
2:53 pm 14:53 Cloudy 49 9.4 25 -3.9 39 39 S 12 19 29.73 1007 10 16 0.00 0.00
3:53 pm 15:53 Cloudy 49 9.4 25 -3.9 39 39 SSW 6 9 29.74 1007 10 16 0.00 0.00
4:53 pm 16:53 Cloudy 46 7.8 29 -1.7 51 51 WSW 12 19 29.76 1008 10 16 0.00 0.00
5:26 pm 17:26 Cloudy with Light Rain 43 6.1 35 1.7 74 74 NNW 16 26 29.74 1007 10 16 0.00 0.00
5:53 pm 17:53 Cloudy 42 5.6 33 0.6 71 71 NW 13 20 29.78 1009 10 16 0.00 0.00
6:53 pm 18:53 Clear 42 5.6 33 0.6 71 71 NW 12 19 29.78 1009 10 16 0.00 0.00
7:53 pm 19:53 Mostly Clear 42 5.6 31 -0.6 65 65 W 12 19 29.79 1009 10 16 0.00 0.00
8:53 pm 20:53 Clear 43 6.1 30 -1.1 60 60 WNW 15 24 29.79 1009 10 16 0.00 0.00
9:53 pm 21:53 Clear 43 6.1 28 -2.2 56 56 WNW 15 24 29.80 1009 10 16 0.00 0.00
10:53 pm 22:53 Clear 40 4.4 29 -1.7 65 65 W 7 11 29.82 1010 10 16 0.00 0.00
11:53 pm 23:53 Clear 41 5 30 -1.1 65 65 W 8 13 29.81 1010 10 16 0.00 0.00

Powered by AerisWeather